SCP
0 0 0 0 -0 -0 -0 0 0 -0 0 -0 -0 -0 -0 0 -0 0 0 0 0 0 0 0 0 0 0 0 0 0 0 0 0 0 0 0 0 0 0 0 0 0 0 0
0 0 0 0 -0 -0 0 0 0 0 0 0 -0 0 -0 -0 -0 0 0 0 0 0 0 0 0 0 0 0 0 0 0 0 0 0 0 0 0 0 0 0 0 0 0 0
0 0 -0 -0 -0 -0 0 0 0 0 0 0 0 0 0 0 0 0 0 0 0 0 0 0 0 0 0 0 0 0 0 0 0 0 0 0 0 0 0 0 0 0 0 0
0 0 -0 -0 -0 -0 0 0 0 -0 0 0 0 0 0 0 0 0 0 0 0 0 0 0 0 0 0 0 0 0 0 0 0 0 0 0 0 0 0 0 0 0 0 0
0 -0 -0 -0 -0 -0 0 -0 -0 0 0 -0 0 0 0 0 0 0 0 0 0 0 0 -0 0 0 0 0 0 0 0 -0 0 0 0 0 0 0 0 0 0 0 0 -0
0 0 -0 -0 -0 0 0 0 0 0 0 0 0 0 0 0 -0 0 -0 -0 -0 -0 -0 -0 -0 -0 0 -0 -0 0 0 0 0 0 0 0 0 0 0 0 0 0 0 0
-0 0 -0 -0 -0 0 0 0 0 0 0 0 0 0 0 0 -0 -0 0 0 -0 0 0 -0 -0 0 0 0 0 -0 0 0 0 0 0 0 0 0 0 0 0 0 0 0
-0 -0 0 -0 -0 -0 0 0 0 0 0 0 0 0 0 0 0 0 0 0 0 0 -0 0 0 0 0 0 -0 0 -0 0 0 0 0 0 0 0 0 0 0 0 0 0
-0 -0 -0 0 -0 -0 0 0 0 0 0 0 0 0 0 0 0 0 0 0 0 0 0 0 0 0 0 0 0 0 -0 0 -0 0 0 0 0 0 0 0 0 0 0 0
-0 0 -0 -0 -0 0 0 0 0 0 0 0 0 0 0 0 0 0 0 0 0 0 0 -0 0 0 0 0 0 -0 -0 -0 -0 -0 0 0 -0 0 0 0 0 0 0 0
-0 -0 -0 0 0 -0 0 0 0 0 0 0 0 0 0 0 0 0 -0 0 0 0 0 0 0 0 0 0 0 -0 -0 -0 -0 -0 0 0 0 -0 -0 0 0 0 0 0
-0 -0 -0 0 0 -0 0 0 0 0 0 0 0 0 0 0 0 0 -0 0 0 0 0 0 0 0 0 0 0 0 0 0 0 0 0 0 0 0 0 0 0 0 0 0
-0 0 0 0 0 0 0 0 0 0 0 0 0 0 0 0 0 0 0 0 0 0 0 0 0 0 0 0 0 0 0 0 0 0 0 0 0 0 0 0 0 0 0 0
0 -0 0 0 0 0 0 0 0 0 0 0 0 0 0 0 0 0 0 0 0 0 0 0 0 0 0 0 0 0 0 0 0 -0 -0 0 0 0 0 0 0 0 0 0
0 0 0 0 0 0 0 0 0 0 0 0 0 0 0 0 0 0 0 0 0 0 0 0 0 0 0 0 0 0 0 0 0 0 -0 -0 0 0 0 0 0 0 0 0
0 0 0 0 0 0 0 0 0 0 0 0 0 0 0 0 0 0 0 0 0 0 0 0 0 0 0 0 0 0 0 0 0 0 0 0 0 0 0 0 0 0 0 0
0 0 0 0 0 0 0 0 0 0 0 0 0 0 0 0 0 0 0 0 0 0 0 0 0 0 0 0 0 0 0 0 0 0 0 0 0 0 0 0 0 0 0 0
0 0 0 0 0 0 0 0 0 0 0 0 0 0 0 0 0 0 0 0 0 0 0 0 0 0 0 0 0 0 0 0 0 0 0 0 0 0 0 0 0 0 0 0
0 0 0 0 0 0 0 0 0 0 0 0 0 0 0 0 0 0 0 0 0 0 0 0 0 0 0 0 0 0 0 0 0 0 0 0 0 0 -0 0 0 0 0 0
0 0 0 0 0 0 0 0 0 0 0 0 0 0 0 0 0 0 0 0 0 0 0 0 0 0 0 0 0 0 0 0 0 0 0 0 -0 0 -0 0 0 0 0 0
0 0 0 0 0 0 0 0 0 0 0 0 0 0 0 -0 0 0 0 0 0 0 0 0 0 0 0 0 0 0 0 0 0 0 0 0 -0 0 -0 0 -0 0 0 0
0 0 0 0 0 0 0 0 0 0 0 0 0 0 0 0 0 0 0 0 0 0 0 0 0 0 0 0 0 0 0 0 0 0 0 0 0 -0 -0 0 -0 -0 0 0
0 0 0 0 0 0 0 0 0 0 0 0 0 0 0 0 0 0 0 0 0 0 0 0 0 0 0 0 0 0 0 0 0 0 0 0 0 -0 -0 0 -0 -0 -0 -0
0 0 0 0 0 0 0 0 0 0 0 0 0 0 0 0 0 -0 -0 0 0 0 0 0 0 0 0 0 0 0 0 -0 0 0 0 0 0 -0 -0 -0 0 -0 0 -0
0 0 0 0 0 0 0 0 -0 0 0 0 0 0 0 0 0 0 -0 0 0 0 0 0 0 0 0 0 0 0 0 0 -0 0 0 0 -0 0 -0 -0 -0 0 -0 -0
0 0 -0 0 0 0 0 0 0 0 0 0 0 0 0 0 0 0 -0 0 0 0 0 0 0 0 0 0 0 0 0 0 0 0 0 0 -0 0 -0 -0 -0 -0 -0 -0
0 0 0 0 0 0 0 0 0 0 0 0 0 0 0 0 0 0 0 0 0 0 0 0 0 0 0 0 0 0 0 0 0 0 0 0 -0 0 0 -0 0 -0 -0 -0
Wind_Speed_500mb
63 58 51 46 46 30 6 15 5 21 7 20 7 22 14 5 15 12 9 9 11 13 18 13 13 15 17 26 27 16 32 17 28 37 41 29 28 36 38 24 30 29 33 33
62 52 44 38 37 29 25 16 15 21 14 10 16 9 15 20 20 16 14 10 13 15 10 9 7 9 33 31 18 23 25 14 22 29 33 38 29 34 41 40 39 40 30 35
56 47 39 31 24 22 23 16 3 17 26 23 14 4 8 11 11 11 7 10 6 12 8 10 5 10 9 7 10 16 18 24 34 31 28 36 30 37 44 40 33 36 37 38
48 42 34 25 21 28 22 17 13 10 15 19 18 16 9 6 12 10 15 11 18 11 9 14 4 6 10 12 3 7 16 30 37 43 45 46 43 41 36 35 44 41 35 35
43 36 30 19 21 20 24 21 15 16 17 10 2 5 13 11 6 9 11 5 1 9 9 13 20 23 22 21 18 14 7 25 26 40 44 39 47 46 42 38 30 38 38 36
37 31 23 21 23 24 17 16 19 10 4 19 12 15 18 6 10 5 6 6 13 20 19 22 28 33 35 35 29 24 17 16 16 25 35 40 40 46 38 37 37 32 35 33
30 25 17 18 20 31 22 9 9 10 12 16 13 9 5 3 8 14 4 8 15 21 24 29 35 37 36 34 30 36 29 25 9 14 25 21 27 40 35 48 46 39 40 36
25 20 14 21 23 26 25 15 14 12 13 19 17 12 8 8 6 15 14 13 15 25 28 20 21 4 5 11 21 24 27 25 9 9 22 27 55 14 18 33 21 28 30 36
20 13 10 19 18 26 26 20 12 4 8 16 10 7 8 7 6 16 4 13 9 17 15 8 11 7 11 8 14 14 26 27 24 24 22 11 28 12 16 27 21 31 34 32
17 10 8 12 17 18 25 16 13 11 5 16 18 14 9 4 11 9 10 19 10 13 11 8 4 5 6 4 10 18 17 7 22 27 29 26 11 4 30 20 7 34 35 31
16 7 6 10 12 14 19 8 19 13 15 10 10 2 6 1 9 12 17 4 9 10 11 6 6 4 3 3 6 12 8 11 8 11 17 24 38 11 13 18 25 32 34 37
16 6 4 6 5 13 20 8 18 7 7 7 4 4 5 6 9 12 11 9 6 7 5 6 5 5 5 5 3 5 3 3 5 7 13 60 49 41 63 32 30 34 28 36
13 8 4 3 1 2 5 6 13 14 16 20 13 14 8 5 5 5 6 5 2 3 6 11 4 7 5 4 1 6 7 11 6 19 18 51 54 36 30 35 30 39 38 43
11 9 7 7 7 5 3 4 8 13 23 13 8 12 7 7 8 6 5 2 3 9 9 8 4 5 3 4 1 2 3 15 11 19 23 51 26 53 40 40 39 44 41 42
12 11 10 9 9 10 13 13 6 10 10 14 20 20 20 13 17 11 9 10 15 12 15 10 7 6 5 7 2 6 10 6 3 7 39 33 44 57 54 50 41 41 44 47
14 14 13 12 12 10 7 2 11 14 7 12 9 26 25 21 17 15 13 13 17 18 19 8 7 3 5 4 5 16 19 22 17 10 18 29 35 51 40 46 44 42 46 48
19 18 18 17 18 16 13 8 13 20 9 8 12 14 30 29 19 11 10 12 12 13 14 22 13 12 11 4 4 13 22 24 24 26 27 20 17 39 45 43 34 33 30 37
21 21 21 21 24 25 21 19 20 16 5 10 8 9 19 30 19 13 7 4 7 16 13 14 17 14 8 5 11 16 6 17 25 36 26 26 14 36 47 42 33 30 25 23
20 21 22 25 12 9 12 22 21 19 12 6 6 8 10 26 12 8 9 9 6 13 10 11 14 5 6 11 13 11 12 15 9 12 18 13 15 21 39 39 44 32 33 30
17 16 5 9 10 13 23 8 8 13 13 12 9 18 11 27 22 17 14 9 6 5 11 8 4 6 13 13 4 11 7 11 7 11 13 14 23 15 23 40 43 38 34 30
7 8 9 16 19 6 6 8 14 16 9 9 15 18 5 38 11 10 22 8 5 4 1 6 7 4 10 5 4 8 8 4 15 10 2 12 20 20 15 29 47 39 40 30
17 18 17 8 5 7 10 7 7 8 3 12 12 12 14 16 20 11 9 4 2 4 10 1 1 5 8 6 9 10 1 9 13 6 10 10 15 18 18 21 33 42 40 36
11 6 5 7 7 4 4 8 6 1 9 12 6 9 5 13 17 6 4 5 8 8 4 5 5 15 8 5 8 10 8 4 14 9 7 10 12 14 19 19 26 29 38 42
11 10 8 12 6 4 12 7 9 18 12 8 4 6 1 2 2 7 8 9 9 6 3 5 10 12 12 11 15 17 11 12 6 15 13 15 11 14 14 15 16 22 32 28
11 10 6 8 14 36 31 4 8 4 10 18 9 6 5 6 5 7 5 4 7 7 6 3 11 15 13 15 19 19 15 11 19 11 15 19 8 11 10 10 11 13 18 34
11 10 14 4 8 23 28 19 25 29 21 7 5 3 5 6 6 11 13 7 10 8 7 16 12 15 17 13 18 18 17 13 9 25 13 15 14 5 11 7 6 9 14 24
7 6 24 31 23 24 27 31 34 27 24 13 7 10 9 12 7 6 10 6 11 16 12 9 9 9 8 13 19 20 18 5 15 17 14 11 14 17 13 5 9 6 12 19
Wind_Direction_500mb
347 349 350 353 351 359 24 286 329 350 343 252 295 38 22 333 23 27 12 292 332 306 323 308 293 295 40 42 356 325 315 305 289 273 275 277 280 283 245 246 255 249 256 258
348 353 356 1 1 17 358 307 59 18 308 317 81 83 71 34 11 30 8 13 9 5 315 312 255 307 60 42 357 28 348 312 297 261 274 267 253 252 257 264 245 263 241 251
351 358 3 9 19 28 358 305 355 59 47 24 42 74 35 100 56 73 34 344 296 335 272 197 327 297 330 32 312 51 322 280 275 283 290 329 308 251 257 259 247 242 249 264
354 2 8 24 50 31 11 10 47 350 9 40 40 33 349 42 39 41 13 55 23 21 316 344 306 339 294 298 46 290 290 271 270 274 289 310 289 287 286 269 261 266 271 249
357 5 14 50 61 46 34 10 2 46 25 329 32 87 57 26 31 312 57 58 323 309 294 293 308 312 294 289 292 233 312 278 278 286 277 273 279 268 261 270 277 281 280 295
1 8 28 75 65 59 35 36 40 63 324 29 23 34 40 27 309 60 312 325 297 298 8 335 304 295 294 293 292 274 239 197 287 284 282 289 264 253 259 263 254 254 262 273
4 11 42 73 69 71 50 49 350 344 45 67 36 63 19 346 300 318 274 272 279 360 320 296 288 262 254 254 253 263 264 253 244 271 296 265 257 265 282 247 261 255 265 280
5 18 59 78 81 80 65 14 1 7 43 31 47 35 19 306 278 247 289 285 271 307 295 296 317 123 339 286 289 266 258 271 209 250 266 277 284 24 357 347 259 23 10 14
5 20 79 83 86 79 67 15 49 342 51 38 11 15 18 331 312 216 188 263 252 300 306 15 289 336 7 348 317 73 329 302 263 240 245 275 32 347 345 321 256 23 17 19
4 19 93 102 88 84 77 23 58 324 12 42 12 30 22 356 291 263 56 358 344 337 311 324 309 348 125 335 318 337 323 357 258 264 269 250 186 43 335 260 356 356 353 357
355 357 143 113 98 85 84 352 13 16 354 47 23 50 290 213 269 326 12 269 20 317 21 331 14 345 24 177 267 321 307 329 330 290 249 266 14 255 261 320 322 323 332 332
356 358 218 163 111 91 88 40 346 18 301 16 300 307 288 244 290 308 15 55 353 22 326 5 320 320 306 296 309 1 317 87 291 285 318 307 351 334 322 316 304 312 314 313
349 357 331 242 227 135 87 91 332 335 289 268 250 272 228 235 259 259 296 93 56 2 328 337 335 267 320 291 30 319 49 36 282 329 338 332 321 308 331 334 333 313 304 299
324 327 322 297 297 297 263 156 358 322 310 297 224 214 206 188 201 186 242 316 301 291 251 245 243 252 249 279 237 157 7 323 318 284 311 330 332 332 327 313 306 296 296 290
319 310 300 300 301 314 305 275 195 280 311 294 289 224 207 205 195 210 237 266 278 267 287 255 252 169 260 253 178 215 186 207 247 296 315 298 298 318 317 314 310 301 295 290
302 303 293 284 284 305 23 176 197 209 301 296 275 211 187 194 202 206 232 257 270 262 277 303 247 141 243 259 255 170 201 198 202 236 293 306 302 335 320 316 308 302 289 279
290 293 291 285 277 265 241 235 207 212 301 261 267 184 190 191 194 205 227 254 254 279 259 252 246 180 202 252 273 11 205 219 230 247 272 288 296 343 335 320 313 311 302 285
287 284 285 284 278 280 268 262 264 247 236 248 279 295 155 186 191 177 192 217 246 239 231 248 253 143 212 227 287 327 359 233 245 242 268 265 282 343 347 350 343 338 334 331
292 289 289 287 273 240 235 261 280 256 213 273 267 284 315 173 173 156 151 169 219 242 220 233 204 123 204 227 276 319 334 338 314 228 264 296 298 324 349 345 357 351 354 6
300 296 289 257 226 255 287 298 191 194 199 224 263 273 288 207 172 181 145 166 241 237 222 243 146 210 221 220 242 294 322 313 322 326 321 331 326 312 347 358 351 5 5 16
296 229 239 252 279 285 241 239 211 168 187 206 241 253 252 279 231 167 174 185 237 243 108 229 170 186 170 107 348 291 318 343 329 335 294 334 335 355 346 4 5 18 25 24
254 285 294 273 272 237 250 253 8 45 84 219 238 240 233 259 282 86 117 151 251 251 216 263 346 160 137 69 346 342 253 311 327 350 356 7 10 5 5 7 12 19 23 33
289 273 246 234 210 269 351 358 239 208 242 214 214 279 257 33 53 80 150 171 221 80 226 212 209 140 121 19 329 331 6 317 14 356 74 21 24 36 29 16 24 26 28 34
254 227 242 230 179 124 212 222 258 256 326 40 304 69 96 82 208 197 215 218 137 223 6 351 120 130 78 29 348 347 32 312 354 42 356 61 27 32 27 38 26 33 42 36
271 255 268 69 291 306 281 54 222 61 28 15 85 104 201 210 254 236 284 40 23 51 28 236 49 72 48 8 354 344 358 347 314 20 11 25 5 53 4 25 41 37 50 48
241 244 331 317 358 322 25 360 29 11 348 67 8 275 319 302 299 2 357 42 27 3 6 92 92 30 16 2 339 339 330 331 8 335 16 6 355 60 22 358 65 69 76 70
243 202 275 277 334 33 28 13 7 350 8 24 17 9 346 341 23 35 21 346 8 5 335 39 54 15 5 334 326 323 340 342 34 310 3 345 345 28 25 80 60 61 93 107
Wind_Speed_850mb
63 58 51 46 46 30 6 15 5 21 7 20 7 22 14 5 15 12 9 9 11 13 18 13 13 15 17 26 27 16 32 17 28 37 41 29 28 36 38 24 30 29 33 33
62 52 44 38 37 29 25 16 15 21 14 10 16 9 15 20 20 16 14 10 13 15 10 9 7 9 33 31 18 23 25 14 22 29 33 38 29 34 41 40 39 40 30 35
56 47 39 31 24 22 23 16 3 17 26 23 14 4 8 11 11 11 7 10 6 12 8 10 5 10 9 7 10 16 18 24 34 31 28 36 30 37 44 40 33 36 37 38
48 42 34 25 21 28 22 17 13 10 15 19 18 16 9 6 12 10 15 11 18 11 9 14 4 6 10 12 3 7 16 30 37 43 45 46 43 41 36 35 44 41 35 35
43 36 30 19 21 20 24 21 15 16 17 10 2 5 13 11 6 9 11 5 1 9 9 13 20 23 22 21 18 14 7 25 26 40 44 39 47 46 42 38 30 38 38 36
37 31 23 21 23 24 17 16 19 10 4 19 12 15 18 6 10 5 6 6 13 20 19 22 28 33 35 35 29 24 17 16 16 25 35 40 40 46 38 37 37 32 35 33
30 25 17 18 20 31 22 9 9 10 12 16 13 9 5 3 8 14 4 8 15 21 24 29 35 37 36 34 30 36 29 25 9 14 25 21 27 40 35 48 46 39 40 36
25 20 14 21 23 26 25 15 14 12 13 19 17 12 8 8 6 15 14 13 15 25 28 20 21 4 5 11 21 24 27 25 9 9 22 27 55 14 18 33 21 28 30 36
20 13 10 19 18 26 26 20 12 4 8 16 10 7 8 7 6 16 4 13 9 17 15 8 11 7 11 8 14 14 26 27 24 24 22 11 28 12 16 27 21 31 34 32
17 10 8 12 17 18 25 16 13 11 5 16 18 14 9 4 11 9 10 19 10 13 11 8 4 5 6 4 10 18 17 7 22 27 29 26 11 4 30 20 7 34 35 31
16 7 6 10 12 14 19 8 19 13 15 10 10 2 6 1 9 12 17 4 9 10 11 6 6 4 3 3 6 12 8 11 8 11 17 24 38 11 13 18 25 32 34 37
16 6 4 6 5 13 20 8 18 7 7 7 4 4 5 6 9 12 11 9 6 7 5 6 5 5 5 5 3 5 3 3 5 7 13 60 49 41 63 32 30 34 28 36
13 8 4 3 1 2 5 6 13 14 16 20 13 14 8 5 5 5 6 5 2 3 6 11 4 7 5 4 1 6 7 11 6 19 18 51 54 36 30 35 30 39 38 43
11 9 7 7 7 5 3 4 8 13 23 13 8 12 7 7 8 6 5 2 3 9 9 8 4 5 3 4 1 2 3 15 11 19 23 51 26 53 40 40 39 44 41 42
12 11 10 9 9 10 13 13 6 10 10 14 20 20 20 13 17 11 9 10 15 12 15 10 7 6 5 7 2 6 10 6 3 7 39 33 44 57 54 50 41 41 44 47
14 14 13 12 12 10 7 2 11 14 7 12 9 26 25 21 17 15 13 13 17 18 19 8 7 3 5 4 5 16 19 22 17 10 18 29 35 51 40 46 44 42 46 48
19 18 18 17 18 16 13 8 13 20 9 8 12 14 30 29 19 11 10 12 12 13 14 22 13 12 11 4 4 13 22 24 24 26 27 20 17 39 45 43 34 33 30 37
21 21 21 21 24 25 21 19 20 16 5 10 8 9 19 30 19 13 7 4 7 16 13 14 17 14 8 5 11 16 6 17 25 36 26 26 14 36 47 42 33 30 25 23
20 21 22 25 12 9 12 22 21 19 12 6 6 8 10 26 12 8 9 9 6 13 10 11 14 5 6 11 13 11 12 15 9 12 18 13 15 21 39 39 44 32 33 30
17 16 5 9 10 13 23 8 8 13 13 12 9 18 11 27 22 17 14 9 6 5 11 8 4 6 13 13 4 11 7 11 7 11 13 14 23 15 23 40 43 38 34 30
7 8 9 16 19 6 6 8 14 16 9 9 15 18 5 38 11 10 22 8 5 4 1 6 7 4 10 5 4 8 8 4 15 10 2 12 20 20 15 29 47 39 40 30
17 18 17 8 5 7 10 7 7 8 3 12 12 12 14 16 20 11 9 4 2 4 10 1 1 5 8 6 9 10 1 9 13 6 10 10 15 18 18 21 33 42 40 36
11 6 5 7 7 4 4 8 6 1 9 12 6 9 5 13 17 6 4 5 8 8 4 5 5 15 8 5 8 10 8 4 14 9 7 10 12 14 19 19 26 29 38 42
11 10 8 12 6 4 12 7 9 18 12 8 4 6 1 2 2 7 8 9 9 6 3 5 10 12 12 11 15 17 11 12 6 15 13 15 11 14 14 15 16 22 32 28
11 10 6 8 14 36 31 4 8 4 10 18 9 6 5 6 5 7 5 4 7 7 6 3 11 15 13 15 19 19 15 11 19 11 15 19 8 11 10 10 11 13 18 34
11 10 14 4 8 23 28 19 25 29 21 7 5 3 5 6 6 11 13 7 10 8 7 16 12 15 17 13 18 18 17 13 9 25 13 15 14 5 11 7 6 9 14 24
7 6 24 31 23 24 27 31 34 27 24 13 7 10 9 12 7 6 10 6 11 16 12 9 9 9 8 13 19 20 18 5 15 17 14 11 14 17 13 5 9 6 12 19
Wind_Direction_850mb
347 349 350 353 351 359 24 286 329 350 343 252 295 38 22 333 23 27 12 292 332 306 323 308 293 295 40 42 356 325 315 305 289 273 275 277 280 283 245 246 255 249 256 258
348 353 356 1 1 17 358 307 59 18 308 317 81 83 71 34 11 30 8 13 9 5 315 312 255 307 60 42 357 28 348 312 297 261 274 267 253 252 257 264 245 263 241 251
351 358 3 9 19 28 358 305 355 59 47 24 42 74 35 100 56 73 34 344 296 335 272 197 327 297 330 32 312 51 322 280 275 283 290 329 308 251 257 259 247 242 249 264
354 2 8 24 50 31 11 10 47 350 9 40 40 33 349 42 39 41 13 55 23 21 316 344 306 339 294 298 46 290 290 271 270 274 289 310 289 287 286 269 261 266 271 249
357 5 14 50 61 46 34 10 2 46 25 329 32 87 57 26 31 312 57 58 323 309 294 293 308 312 294 289 292 233 312 278 278 286 277 273 279 268 261 270 277 281 280 295
1 8 28 75 65 59 35 36 40 63 324 29 23 34 40 27 309 60 312 325 297 298 8 335 304 295 294 293 292 274 239 197 287 284 282 289 264 253 259 263 254 254 262 273
4 11 42 73 69 71 50 49 350 344 45 67 36 63 19 346 300 318 274 272 279 360 320 296 288 262 254 254 253 263 264 253 244 271 296 265 257 265 282 247 261 255 265 280
5 18 59 78 81 80 65 14 1 7 43 31 47 35 19 306 278 247 289 285 271 307 295 296 317 123 339 286 289 266 258 271 209 250 266 277 284 24 357 347 259 23 10 14
5 20 79 83 86 79 67 15 49 342 51 38 11 15 18 331 312 216 188 263 252 300 306 15 289 336 7 348 317 73 329 302 263 240 245 275 32 347 345 321 256 23 17 19
4 19 93 102 88 84 77 23 58 324 12 42 12 30 22 356 291 263 56 358 344 337 311 324 309 348 125 335 318 337 323 357 258 264 269 250 186 43 335 260 356 356 353 357
355 357 143 113 98 85 84 352 13 16 354 47 23 50 290 213 269 326 12 269 20 317 21 331 14 345 24 177 267 321 307 329 330 290 249 266 14 255 261 320 322 323 332 332
356 358 218 163 111 91 88 40 346 18 301 16 300 307 288 244 290 308 15 55 353 22 326 5 320 320 306 296 309 1 317 87 291 285 318 307 351 334 322 316 304 312 314 313
349 357 331 242 227 135 87 91 332 335 289 268 250 272 228 235 259 259 296 93 56 2 328 337 335 267 320 291 30 319 49 36 282 329 338 332 321 308 331 334 333 313 304 299
324 327 322 297 297 297 263 156 358 322 310 297 224 214 206 188 201 186 242 316 301 291 251 245 243 252 249 279 237 157 7 323 318 284 311 330 332 332 327 313 306 296 296 290
319 310 300 300 301 314 305 275 195 280 311 294 289 224 207 205 195 210 237 266 278 267 287 255 252 169 260 253 178 215 186 207 247 296 315 298 298 318 317 314 310 301 295 290
302 303 293 284 284 305 23 176 197 209 301 296 275 211 187 194 202 206 232 257 270 262 277 303 247 141 243 259 255 170 201 198 202 236 293 306 302 335 320 316 308 302 289 279
290 293 291 285 277 265 241 235 207 212 301 261 267 184 190 191 194 205 227 254 254 279 259 252 246 180 202 252 273 11 205 219 230 247 272 288 296 343 335 320 313 311 302 285
287 284 285 284 278 280 268 262 264 247 236 248 279 295 155 186 191 177 192 217 246 239 231 248 253 143 212 227 287 327 359 233 245 242 268 265 282 343 347 350 343 338 334 331
292 289 289 287 273 240 235 261 280 256 213 273 267 284 315 173 173 156 151 169 219 242 220 233 204 123 204 227 276 319 334 338 314 228 264 296 298 324 349 345 357 351 354 6
300 296 289 257 226 255 287 298 191 194 199 224 263 273 288 207 172 181 145 166 241 237 222 243 146 210 221 220 242 294 322 313 322 326 321 331 326 312 347 358 351 5 5 16
296 229 239 252 279 285 241 239 211 168 187 206 241 253 252 279 231 167 174 185 237 243 108 229 170 186 170 107 348 291 318 343 329 335 294 334 335 355 346 4 5 18 25 24
254 285 294 273 272 237 250 253 8 45 84 219 238 240 233 259 282 86 117 151 251 251 216 263 346 160 137 69 346 342 253 311 327 350 356 7 10 5 5 7 12 19 23 33
289 273 246 234 210 269 351 358 239 208 242 214 214 279 257 33 53 80 150 171 221 80 226 212 209 140 121 19 329 331 6 317 14 356 74 21 24 36 29 16 24 26 28 34
254 227 242 230 179 124 212 222 258 256 326 40 304 69 96 82 208 197 215 218 137 223 6 351 120 130 78 29 348 347 32 312 354 42 356 61 27 32 27 38 26 33 42 36
271 255 268 69 291 306 281 54 222 61 28 15 85 104 201 210 254 236 284 40 23 51 28 236 49 72 48 8 354 344 358 347 314 20 11 25 5 53 4 25 41 37 50 48
241 244 331 317 358 322 25 360 29 11 348 67 8 275 319 302 299 2 357 42 27 3 6 92 92 30 16 2 339 339 330 331 8 335 16 6 355 60 22 358 65 69 76 70
243 202 275 277 334 33 28 13 7 350 8 24 17 9 346 341 23 35 21 346 8 5 335 39 54 15 5 334 326 323 340 342 34 310 3 345 345 28 25 80 60 61 93 107